Location: Unspecified
(43.4680°N, 87.1740°E)
Time: 21:38:13
(UTC+00:00)

Spot 2 Rocket - Pass Details

Date: 17 April 2021
Orbit: 756 x 773 km, 98.5° (Epoch: 12 May)

Event Time Altitude Azimuth Distance (km) Brightness Sun altitude
Exits shadow 15:18:25 60° 123° (ESE) 881 3.4 -23.1°
Maximum altitude 15:19:10 70° 73° (ENE) 821 3.4 -23.2°
Drops below altitude 10° 15:24:14 10° 351° (N) 2,313 6.7 -23.9°
Sets 15:26:33 0° 349° (N) 3,241 7.6 -24.2°
